Flag for Poland Weather past 2 weeks in Gorzów Wielkopolski, Poland

36 °F


Feels Like: 31 °F
Forecast: 34 / 47 °F
Wind: 6 mph from Southwest

Location: Szczecin Airport

Current Time: Nov 29, 2015 at 12:07:15 AM

Latest Report: Nov 28, 2015 at 11:00 PM

Visibility: 10 mi

Pressure: 29.80 "Hg

Humidity: 100%

Dew point: 36 °F

Location of Gorzów WielkopolskiLocation

Historic Weather in Gorzów Wielkopolski — Graph


Gorzów Wielkopolski temperature yesterday

Maximum temperature yesterday: 36 °F (at 12:30 AM)
Minimum temperature yesterday: 30 °F (at 4:30 AM)
Average temperature yesterday: 33 °F

Past Weeks' High & Low Weather Summary

High54 °F (Nov 17, 9:30 PM)100% (Nov 15, 9:30 AM)30.18 "Hg (Nov 15, 9:30 AM)
Low25 °F (Nov 24, 12:30 AM)66% (Nov 14, 1:30 PM)29.33 "Hg (Nov 21, 1:30 AM)
Average41 °F91%29.73 "Hg
* Reported Nov 13 10:00 PM — Nov 28 10:30 PM, Gorzów Wielkopolski, Weather by CustomWeather, © 2015

Note: Actual official high and low records may vary slightly from our data, if they occured in-between our weather recording intervals... More about our weather records


Gorzów Wielkopolski weather history for previous 24 hours

Time TempWeatherWind HumidityBarometerVisibility
10:30 PM
Sat, Nov 28
36 °FClear.6 mph100%29.83 "Hg10 mi
9:30 PM36 °FClear.3 mph100%29.83 "Hg10 mi
9:00 PM36 °FClear.5 mph100%29.80 "Hg5 mi
8:30 PM36 °FPassing clouds.5 mph100%29.77 "Hg5 mi
8:00 PM36 °FPassing clouds.7 mph100%29.77 "Hg5 mi
7:30 PM36 °FPartly cloudy.6 mph100%29.77 "Hg4 mi
7:00 PM36 °FPartly cloudy.6 mph100%29.77 "Hg4 mi
6:30 PM36 °FFog.9 mph100%29.77 "Hg3 mi
6:00 PM36 °FFog.7 mph100%29.74 "Hg2 mi
5:30 PM34 °FFog.7 mph100%29.74 "Hg2 mi
5:00 PM34 °FLight rain. Fog.6 mph100%29.71 "Hg1 mi
4:30 PM34 °FLight rain. Fog.6 mph93%29.71 "Hg2 mi
4:00 PM32 °FLight rain. Ice fog.7 mph100%29.68 "Hg2 mi
3:30 PM32 °FLight snow. Ice fog.8 mph100%29.68 "Hg1 mi
3:00 PM32 °FSnow. Ice fog.9 mph100%29.65 "Hg1 mi
2:30 PM32 °FLight snow. Ice fog.8 mph100%29.65 "Hg1 mi
2:00 PM32 °FSnow. Ice fog.7 mph100%29.65 "Hg1 mi
1:30 PM32 °FLight snow. Ice fog.7 mph93%29.65 "Hg1 mi
1:00 PM32 °FDrizzle. Ice fog.7 mph93%29.65 "Hg1 mi
12:30 PM32 °FDrizzle. Ice fog.9 mph93%29.65 "Hg3 mi
12:00 PM32 °FPartly sunny.9 mph87%29.65 "HgN/A
11:30 AM34 °FPartly sunny.12 mph81%29.65 "HgN/A
11:00 AM34 °FScattered clouds.12 mph81%29.65 "HgN/A
10:30 AM32 °FScattered clouds.12 mph87%29.68 "HgN/A
10:00 AM32 °FPassing clouds.13 mph87%29.68 "HgN/A
9:30 AM30 °FClear.13 mph93%29.65 "Hg5 mi
9:00 AM30 °FClear.10 mph93%29.68 "Hg5 mi
7:30 AM30 °FClear.9 mph93%29.68 "Hg5 mi
7:00 AM30 °FClear.10 mph93%29.71 "Hg10 mi
6:30 AM30 °FClear.10 mph93%29.71 "Hg10 mi
6:00 AM30 °FClear.10 mph93%29.74 "Hg10 mi
5:30 AM30 °FPassing clouds.9 mph93%29.74 "Hg5 mi
5:00 AM30 °FPassing clouds.8 mph100%29.77 "Hg5 mi
4:30 AM30 °FPassing clouds.10 mph100%29.77 "Hg4 mi
4:00 AM32 °FPartly cloudy.12 mph93%29.77 "Hg4 mi
3:30 AM32 °FPassing clouds.13 mph100%29.80 "Hg4 mi
3:00 AM34 °FPassing clouds.14 mph93%29.80 "Hg4 mi
2:30 AM34 °FPassing clouds.13 mph93%29.83 "Hg4 mi
1:00 AM34 °FPartly cloudy.10 mph93%29.86 "HgN/A
12:30 AM36 °FPartly cloudy.12 mph93%29.86 "HgN/A
12:00 AM34 °FPartly cloudy.9 mph100%29.89 "Hg5 mi
Weather by CustomWeather, © 2015

See weather overviewHow to use our weather pages